Weather History for Beaufort MCAS, SC

Change the Weather History Date:

Wednesday, April 30, 2014

  Actual Average Record
Temperature  
Mean Temperature 75 °F -  
Max Temperature 81 °F 80 °F 90 °F (1938)
Min Temperature 70 °F 58 °F 44 °F (1939)
Cooling Degree Days 10    
Growing Degree Days 25 (Base 50)    
Moisture  
Dew Point 69 °F    
Average Humidity 84    
Maximum Humidity 94    
Minimum Humidity 67    
Precipitation  
Precipitation 0.43 in - - ()
Sea Level Pressure  
Sea Level Pressure 30.00 in    
Wind  
Wind Speed 8 mph (SW)    
Max Wind Speed 20 mph    
Max Gust Speed 32 mph    
Visibility 8 miles    
Events Fog , Rain , Thunderstorm    
Averages and records for this station are not official NWS values.
T = Trace of Precipitation, MM = Missing Value Source: NWS Daily Summary

Daily Weather History Graph

Daily Weather History Graph

Search for Another Location

Airport:

Trip Planner

Search our weather history database for the weather conditions in past years. The results will help you decide how hot, cold, wet, or windy it might be!

Date:

Astronomy

Apr. 30, 2014 Rise Set
Actual Time 6:37 AM EDT 8:03 PM EDT
Civil Twilight 6:11 AM EDT 8:29 PM EDT
Nautical Twilight 5:39 AM EDT 9:00 PM EDT
Astronomical Twilight 5:07 AM EDT 9:33 PM EDT
Moon 7:38 AM EDT (4/30) 9:38 PM EDT (4/30)
Length of Visible Light 14h 18m
Length of Day
13h 26m
New Moon, 2% of the Moon is Illuminated
Apr 30
New Moon
May 6
First Quarter
May 14
Full
May 21
Last Quarter
May 28
New

Hourly Weather History & Observations

Time (EDT) Temp. Heat Index Dew Point Humidity Pressure Visibility Wind Dir Wind Speed Gust Speed Precip Events Conditions
12:56 AM 75.9 °F - 71.1 °F 85% 29.98 in 10.0 mi SW 10.4 mph - N/A   Mostly Cloudy
1:56 AM 75.0 °F - 71.1 °F 87% 29.99 in 10.0 mi WSW 8.1 mph - N/A   Clear
2:56 AM 73.9 °F - 66.9 °F 79% 29.97 in 10.0 mi SW 6.9 mph - N/A   Clear
3:56 AM 73.0 °F - 66.9 °F 81% 29.98 in 10.0 mi SW 5.8 mph - N/A   Clear
4:56 AM 73.9 °F - 66.0 °F 76% 30.00 in 10.0 mi SW 6.9 mph - N/A   Scattered Clouds
5:56 AM 73.0 °F - 66.0 °F 79% 29.98 in 10.0 mi SW 5.8 mph - N/A   Clear
6:56 AM 73.9 °F - 66.0 °F 76% 30.01 in 10.0 mi WSW 5.8 mph - N/A   Mostly Cloudy
7:56 AM 75.0 °F - 66.9 °F 76% 30.02 in 10.0 mi SW 5.8 mph - N/A   Mostly Cloudy
8:56 AM 75.9 °F - 70.0 °F 82% 30.03 in 10.0 mi SW 5.8 mph - N/A   Mostly Cloudy
9:42 AM 75.9 °F - 72.0 °F 87% 30.02 in 1.8 mi WSW 8.1 mph - 0.05 in Rain Light Rain
9:44 AM 75.0 °F - 72.0 °F 90% 30.01 in 2.5 mi WSW 9.2 mph - 0.06 in Rain , Thunderstorm Light Thunderstorms and Rain
9:56 AM 75.0 °F - 73.0 °F 94% 30.01 in 7.0 mi WSW 6.9 mph - 0.07 in Thunderstorm Thunderstorm
10:08 AM 75.0 °F - 73.0 °F 94% 30.02 in 5.0 mi SW 9.2 mph 18.4 mph 0.00 in Rain , Thunderstorm Light Thunderstorms and Rain
10:27 AM 71.1 °F - 68.0 °F 90% 30.03 in 2.0 mi West 19.6 mph 32.2 mph 0.05 in Rain , Thunderstorm Thunderstorms and Rain
10:56 AM 70.0 °F - 68.0 °F 93% 30.03 in 4.0 mi West 9.2 mph - 0.14 in Rain , Thunderstorm Light Thunderstorms and Rain
11:52 AM 73.4 °F - 71.6 °F 94% 30.04 in 9.0 mi Variable 5.8 mph - 0.00 in Rain Light Rain
11:56 AM 73.0 °F - 70.0 °F 90% 30.05 in 10.0 mi SW 5.8 mph - 0.00 in Thunderstorm Overcast
12:11 PM 73.0 °F - 69.1 °F 87% 30.06 in 3.0 mi WSW 8.1 mph - 0.01 in Rain , Thunderstorm Thunderstorms and Rain
12:18 PM 72.0 °F - 70.0 °F 93% 30.06 in 3.0 mi WSW 8.1 mph - 0.04 in Rain , Thunderstorm Thunderstorms and Rain
12:26 PM 73.0 °F - 70.0 °F 90% 30.06 in 0.5 mi WNW 13.8 mph 18.4 mph 0.11 in Fog , Rain , Thunderstorm Heavy Thunderstorms and Rain
12:35 PM 71.1 °F - 69.1 °F 93% 30.06 in 3.0 mi WSW 11.5 mph 27.6 mph 0.21 in Rain , Thunderstorm Thunderstorms and Rain
12:56 PM 72.0 °F - 69.1 °F 91% 30.06 in 5.0 mi SW 5.8 mph - 0.22 in Rain , Thunderstorm Light Thunderstorms and Rain
1:17 PM 73.0 °F - 71.1 °F 93% 30.03 in 7.0 mi SSW 4.6 mph - 0.00 in   Overcast
1:56 PM 75.0 °F - 71.1 °F 87% 30.00 in 10.0 mi SW 8.1 mph - 0.00 in   Overcast
2:56 PM 75.9 °F - 70.0 °F 82% 29.98 in 10.0 mi SSW 10.4 mph 17.3 mph N/A   Overcast
3:07 PM 75.9 °F - 70.0 °F 82% 29.94 in 10.0 mi SSW 10.4 mph 19.6 mph N/A   Overcast
3:56 PM 77.0 °F - 68.0 °F 74% 29.95 in 10.0 mi WSW 8.1 mph - N/A   Overcast
4:56 PM 80.1 °F 82.9 °F 69.1 °F 69% 29.91 in 10.0 mi SW 9.2 mph 18.4 mph N/A   Mostly Cloudy
5:56 PM 80.1 °F 82.7 °F 68.0 °F 67% 29.94 in 10.0 mi WSW 12.7 mph 18.4 mph N/A   Mostly Cloudy
6:56 PM 78.1 °F - 68.0 °F 71% 29.96 in 10.0 mi WSW 4.6 mph - N/A   Mostly Cloudy
7:56 PM 75.9 °F - 69.1 °F 79% 29.96 in 10.0 mi SSW 3.5 mph - N/A   Mostly Cloudy
8:56 PM 73.9 °F - 66.9 °F 79% 30.00 in 10.0 mi West 6.9 mph - N/A   Mostly Cloudy
9:56 PM 73.9 °F - 68.0 °F 82% 30.01 in 10.0 mi WSW 6.9 mph - N/A   Mostly Cloudy
10:56 PM 73.9 °F - 68.0 °F 82% 29.99 in 10.0 mi WSW 5.8 mph - N/A   Clear
11:56 PM 75.0 °F - 66.9 °F 76% 29.99 in 10.0 mi SW 5.8 mph - N/A   Clear